Location: Enborne
(51.3833°N, 1.3667°W)
Time: 17:58:48
(UTC+00:00)

Cosmos 1844 Rocket - Pass Details

Date: 18 January 2021
Orbit: 826 x 843 km, 71.0° (Epoch: 06 March)

Event Time Altitude Azimuth Distance (km) Brightness Sun altitude
Rises 20:26:31 0° 233° (SW) 3,393 6.3 -36.0°
Reaches altitude 10° 20:29:06 10° 240° (WSW) 2,461 5.6 -36.3°
Enters shadow 20:32:40 33° 269° (W) 1,392 4.2 -36.9°
